OK3FM-13 Weather Reports


time (UTC)temp
C
wind
direction
speed
KPH
gust
KPH
rain 1hr
cm
rain 24hr
cm
rain mn
cm
humidity
%
barometer
mb
20260905182824 20 0.0 0.0 0.00 0.00 0.00 42 1022.5
20260905181824 20 0.0 0.0 0.00 0.00 0.00 42 1022.4
20260905180824 20 0.0 0.0 0.00 0.00 0.00 41 1022.2
20260905175824 20 0.0 0.0 0.00 0.00 0.00 41 1022.0
20260905174824 20 0.0 0.0 0.00 0.00 0.00 40 1021.8
20260905173824 20 0.0 0.0 0.00 0.00 0.00 39 1021.7
20260905172824 21 0.0 0.0 0.00 0.00 0.00 39 1021.7
20260905171824 21 0.0 0.0 0.00 0.00 0.00 39 1021.5
20260905170824 21 0.0 0.0 0.00 0.00 0.00 38 1021.4
20260905165824 21 0.0 0.0 0.00 0.00 0.00 38 1021.2
20260905164824 21 0.0 0.0 0.00 0.00 0.00 38 1021.1
20260905163824 21 0.0 0.0 0.00 0.00 0.00 38 1021.1
20260905162824 21 0.0 0.0 0.00 0.00 0.00 38 1021.0
20260905161824 21 0.0 0.0 0.00 0.00 0.00 38 1020.9
20260905160824 22 0.0 0.0 0.00 0.00 0.00 38 1020.8
20260905155824 22 0.0 0.0 0.00 0.00 0.00 37 1020.7
20260905154824 22 0.0 0.0 0.00 0.00 0.00 38 1020.6
20260905153824 22 0.0 0.0 0.00 0.00 0.00 37 1020.6
20260905152824 22 0.0 0.0 0.00 0.00 0.00 37 1020.6
20260905151824 22 0.0 0.0 0.00 0.00 0.00 37 1020.5
20260905150824 22 0.0 0.0 0.00 0.00 0.00 37 1020.5
20260905145824 22 0.0 0.0 0.00 0.00 0.00 38 1020.5
20260905144824 22 0.0 0.0 0.00 0.00 0.00 38 1020.3
20260905143824 22 0.0 0.0 0.00 0.00 0.00 37 1020.3
20260905142824 22 0.0 0.0 0.00 0.00 0.00 38 1020.3
20260905141824 22 0.0 0.0 0.00 0.00 0.00 38 1020.3
20260905140824 22 0.0 0.0 0.00 0.00 0.00 37 1020.2
20260905135824 22 0.0 0.0 0.00 0.00 0.00 38 1020.3
20260905134824 22 0.0 0.0 0.00 0.00 0.00 39 1020.5
20260905133824 22 0.0 0.0 0.00 0.00 0.00 39 1020.5
20260905132824 21 0.0 0.0 0.00 0.00 0.00 42 1020.7
20260905131825 22 0.0 0.0 0.00 0.00 0.00 41 1020.7
20260905130824 22 0.0 0.0 0.00 0.00 0.00 42 1020.7
20260905125824 21 0.0 0.0 0.00 0.00 0.00 45 1020.8
20260905124824 20 0.0 0.0 0.00 0.00 0.00 47 1021.0
20260905123824 20 0.0 0.0 0.00 0.00 0.00 48 1021.1
20260905122824 21 0.0 0.0 0.00 0.00 0.00 47 1021.0
20260905121824 21 0.0 0.0 0.00 0.00 0.00 46 1021.0
20260905120824 21 0.0 0.0 0.00 0.00 0.00 44 1021.0
20260905115824 21 0.0 0.0 0.00 0.00 0.00 45 1021.1
20260905114824 21 0.0 0.0 0.00 0.00 0.00 43 1021.1
20260905113824 21 0.0 0.0 0.00 0.00 0.00 44 1021.2
20260905112824 21 0.0 0.0 0.00 0.00 0.00 45 1021.2
20260905111824 21 0.0 0.0 0.00 0.00 0.00 44 1021.3
20260905110824 20 0.0 0.0 0.00 0.00 0.00 47 1021.3
20260905105824 20 0.0 0.0 0.00 0.00 0.00 47 1021.3
20260905104824 19 0.0 0.0 0.00 0.00 0.00 50 1021.4
20260905103824 20 0.0 0.0 0.00 0.00 0.00 50 1021.3
20260905102824 20 0.0 0.0 0.00 0.00 0.00 49 1021.3
20260905101824 20 0.0 0.0 0.00 0.00 0.00 48 1021.2
20260905100824 19 0.0 0.0 0.00 0.00 0.00 53 1021.2
20260905095824 18 0.0 0.0 0.00 0.00 0.00 58 1021.2
20260905094824 18 0.0 0.0 0.00 0.00 0.00 61 1021.1
20260905093824 19 0.0 0.0 0.00 0.00 0.00 60 1021.1
20260905092827 19 0.0 0.0 0.00 0.00 0.00 59 1021.2
20260905091822 18 0.0 0.0 0.00 0.00 0.00 63 1021.3
20260905090823 18 0.0 0.0 0.00 0.00 0.00 63 1021.3
20260905085822 18 0.0 0.0 0.00 0.00 0.00 64 1021.0
20260905084822 18 0.0 0.0 0.00 0.00 0.00 65 1021.1
20260905083822 18 0.0 0.0 0.00 0.00 0.00 65 1021.0
20260905082822 18 0.0 0.0 0.00 0.00 0.00 65 1020.9
20260905081822 18 0.0 0.0 0.00 0.00 0.00 69 1020.8
20260905080822 17 0.0 0.0 0.00 0.00 0.00 70 1020.7
20260905075822 17 0.0 0.0 0.00 0.00 0.00 72 1020.6
20260905074822 17 0.0 0.0 0.00 0.00 0.00 73 1020.6
20260905073822 17 0.0 0.0 0.00 0.00 0.00 74 1020.7
20260905072822 16 0.0 0.0 0.00 0.00 0.00 74 1020.6
20260905071822 16 0.0 0.0 0.00 0.00 0.00 75 1020.6
20260905070822 16 0.0 0.0 0.00 0.00 0.00 75 1020.6
20260905065822 16 0.0 0.0 0.00 0.00 0.00 75 1020.5
20260905064822 16 0.0 0.0 0.00 0.00 0.00 78 1020.6
20260905063822 16 0.0 0.0 0.00 0.00 0.00 80 1020.5
20260905062822 16 0.0 0.0 0.00 0.00 0.00 80 1020.5
20260905061822 15 0.0 0.0 0.00 0.00 0.00 81 1020.4
20260905060822 15 0.0 0.0 0.00 0.00 0.00 81 1020.4
20260905055822 15 0.0 0.0 0.00 0.00 0.00 81 1020.4
20260905054822 15 0.0 0.0 0.00 0.00 0.00 81 1020.1
20260905053822 15 0.0 0.0 0.00 0.00 0.00 79 1019.8
20260905052822 15 0.0 0.0 0.00 0.00 0.00 80 1019.6
20260905051822 15 0.0 0.0 0.00 0.00 0.00 80 1019.7
20260905050822 15 0.0 0.0 0.00 0.00 0.00 80 1019.6
20260905045822 16 0.0 0.0 0.00 0.00 0.00 80 1019.3
20260905044822 16 0.0 0.0 0.00 0.00 0.00 80 1018.7
20260905043823 16 0.0 0.0 0.00 0.00 0.00 81 1019.3
20260905042822 16 0.0 0.0 0.00 0.00 0.00 80 1019.4
20260905041822 16 0.0 0.0 0.00 0.00 0.00 80 1019.2
20260905040822 16 0.0 0.0 0.00 0.00 0.00 82 1019.5
20260905035822 16 0.0 0.0 0.00 0.00 0.00 80 1019.0
20260905034822 17 0.0 0.0 0.00 0.00 0.00 83 1019.0
20260905033822 17 0.0 0.0 0.00 0.00 0.00 85 1019.1
20260905032822 17 0.0 0.0 0.00 0.00 0.00 83 1019.2
20260905031822 17 0.0 0.0 0.00 0.00 0.00 83 1018.5
20260905030822 17 0.0 0.0 0.00 0.00 0.00 82 1017.8
20260905025822 18 0.0 0.0 0.00 0.00 0.00 79 1017.6
20260905024822 18 0.0 0.0 0.00 0.00 0.00 77 1017.4
20260905023822 18 0.0 0.0 0.00 0.00 0.00 78 1017.7
20260905022822 18 0.0 0.0 0.00 0.00 0.00 78 1018.0
20260905021822 18 0.0 0.0 0.00 0.00 0.00 77 1017.8
20260905020822 18 0.0 0.0 0.00 0.00 0.00 76 1017.6
20260905015822 18 0.0 0.0 0.00 0.00 0.00 78 1017.9
20260905014822 18 0.0 0.0 0.00 0.00 0.00 78 1017.6
20260905013822 18 0.0 0.0 0.00 0.00 0.00 78 1017.2
20260905012822 18 0.0 0.0 0.00 0.00 0.00 77 1017.5
20260905011822 18 0.0 0.0 0.00 0.00 0.00 77 1017.4
20260905010822 18 0.0 0.0 0.00 0.00 0.00 74 1017.1
20260905005822 18 0.0 0.0 0.00 0.00 0.00 72 1017.0
20260905004822 19 0.0 0.0 0.00 0.00 0.00 69 1016.9
20260905003822 19 0.0 0.0 0.00 0.00 0.00 68 1017.0
20260905002822 19 0.0 0.0 0.00 0.00 0.00 66 1017.0
20260905001822 20 0.0 0.0 0.00 0.00 0.00 64 1016.8
20260905000822 20 0.0 0.0 0.00 0.00 0.00 61 1016.5
20260904235822 20 0.0 0.0 0.00 0.00 0.00 61 1016.4
20260904234822 20 0.0 0.0 0.00 0.00 0.00 60 1016.2
20260904233822 20 0.0 0.0 0.00 0.00 0.00 60 1016.3
20260904232822 20 0.0 0.0 0.00 0.00 0.00 60 1015.6
20260904231822 20 0.0 0.0 0.00 0.00 0.00 60 1015.3
20260904230822 20 0.0 0.0 0.00 0.00 0.00 60 1015.1
20260904225822 20 0.0 0.0 0.00 0.00 0.00 60 1014.8
20260904224822 20 0.0 0.0 0.00 0.00 0.00 61 1014.5
20260904223822 21 0.0 0.0 0.00 0.00 0.00 62 1014.2
20260904222822 21 0.0 0.0 0.00 0.00 0.00 61 1014.1
20260904221822 21 0.0 0.0 0.00 0.00 0.00 60 1013.5
20260904220822 22 0.0 0.0 0.00 0.00 0.00 59 1013.3
20260904215822 22 0.0 0.0 0.00 0.00 0.00 60 1013.2
20260904214822 22 0.0 0.0 0.00 0.00 0.00 59 1012.9
20260904213822 22 0.0 0.0 0.00 0.00 0.00 57 1012.6
20260904212824 22 0.0 0.0 0.00 0.00 0.00 57 1012.6
20260904211821 23 0.0 0.0 0.00 0.00 0.00 55 1012.4
20260904210821 24 0.0 0.0 0.00 0.00 0.00 51 1012.3
20260904205821 25 0.0 0.0 0.00 0.00 0.00 48 1012.1
20260904204821 25 0.0 0.0 0.00 0.00 0.00 47 1011.7
20260904203821 25 0.0 0.0 0.00 0.00 0.00 46 1011.7
20260904202821 25 0.0 0.0 0.00 0.00 0.00 46 1011.8
20260904201821 25 0.0 0.0 0.00 0.00 0.00 46 1011.8
20260904200821 25 0.0 0.0 0.00 0.00 0.00 46 1011.9
20260904195821 25 0.0 0.0 0.00 0.00 0.00 46 1012.0
20260904194821 25 0.0 0.0 0.00 0.00 0.00 45 1012.1
20260904193821 25 0.0 0.0 0.00 0.00 0.00 45 1012.1
20260904192821 25 0.0 0.0 0.00 0.00 0.00 46 1012.2
20260904191821 25 0.0 0.0 0.00 0.00 0.00 46 1012.2
20260904190821 26 0.0 0.0 0.00 0.00 0.00 46 1012.2
20260904185821 26 0.0 0.0 0.00 0.00 0.00 46 1012.2
20260904184821 26 0.0 0.0 0.00 0.00 0.00 46 1012.2
20260904183820 26 0.0 0.0 0.00 0.00 0.00 46 1012.2